Pagrindinis puslapis
METAR-TAF:

METAR-TAF

Oro uostai :

Vilhelmina, Švedija

platuma: 64-34-44N, ilguma: 016-50-00E, Aukštis: 347 m

Dabartinis oras

Ataskaita buvo paskelbta 44 minutes, ne 22:20 UTC
Vėjas 5 kt iš Rytų
Temperatūra 16°C
Drėgmė 72%
Slėgis 1013 hPa
Matomumas 10 km arba daugiau

METAR: ESNV 142220Z AUTO 08005KT 9999 FEW025/// SCT084/// OVC100/// 16/11 Q1013

Laikas: 01:04 (23:04 UTC)


TAF: trūkstamas

Orai ataskaitas ir orų prognozės (METAR, TAF).

turimą stotys yra geltonos ir raudonos taškus žemėlapyje.

Perkelti pele per norėdami pamatyti stoties vardą.

Tada spustelėkite, norėdami matyti oro stebėjimo ir prognozės.

Norėdami pakeisti žemėlapį: spustelėkite ant žalios mygtukų su juodo kryžiaus žemyn,; žalią mygtuką su brūkšneliu, jei norite nutolinti; arba žalių rodyklių gretimoms žemėlapius.


METAR-TAF: